Year,Month,Day,Hour,Minute,Value (Times are PST for temperature in C)
2009,04,18,00,00,7.40
2009,04,18,00,01,7.40
2009,04,18,00,02,7.40
2009,04,18,00,03,7.40
2009,04,18,00,04,7.40
2009,04,18,00,05,7.40
2009,04,18,00,06,7.30
2009,04,18,00,07,7.30
2009,04,18,00,08,7.30
2009,04,18,00,09,7.30
2009,04,18,00,10,7.30
2009,04,18,00,11,7.30
2009,04,18,00,12,7.30
2009,04,18,00,13,7.30
2009,04,18,00,14,7.30
2009,04,18,00,15,7.30
2009,04,18,00,16,7.30
2009,04,18,00,17,7.30
2009,04,18,00,18,7.20
2009,04,18,00,19,7.20
2009,04,18,00,20,7.20
2009,04,18,00,21,7.20
2009,04,18,00,22,7.20
2009,04,18,00,23,7.10
2009,04,18,00,24,7.10
2009,04,18,00,25,7.10
2009,04,18,00,26,7.10
2009,04,18,00,27,7.10
2009,04,18,00,28,7.00
2009,04,18,00,29,7.00
2009,04,18,00,30,7.00
2009,04,18,00,31,6.90
2009,04,18,00,32,6.90
2009,04,18,00,33,6.90
2009,04,18,00,34,6.80
2009,04,18,00,35,6.80
2009,04,18,00,36,6.80
2009,04,18,00,37,6.80
2009,04,18,00,38,6.80
2009,04,18,00,39,6.70
2009,04,18,00,40,6.70
2009,04,18,00,41,6.70
2009,04,18,00,42,6.60
2009,04,18,00,43,6.60
2009,04,18,00,44,6.60
2009,04,18,00,45,6.50
2009,04,18,00,46,6.50
2009,04,18,00,47,6.40
2009,04,18,00,48,6.40
2009,04,18,00,49,6.40
2009,04,18,00,50,6.30
2009,04,18,00,51,6.30
2009,04,18,00,52,6.30
2009,04,18,00,53,6.20
2009,04,18,00,54,6.20
2009,04,18,00,55,6.20
2009,04,18,00,56,6.20
2009,04,18,00,57,6.20
2009,04,18,00,58,6.20
2009,04,18,00,59,6.20
2009,04,18,01,00,6.10
2009,04,18,01,01,6.10
2009,04,18,01,02,6.00
2009,04,18,01,03,6.00
2009,04,18,01,04,5.90
2009,04,18,01,05,5.90
2009,04,18,01,06,5.90
2009,04,18,01,07,5.90
2009,04,18,01,08,5.90
2009,04,18,01,09,5.90
2009,04,18,01,10,5.80
2009,04,18,01,11,5.80
2009,04,18,01,12,5.80
2009,04,18,01,13,5.70
2009,04,18,01,14,5.70
2009,04,18,01,15,5.70
2009,04,18,01,16,5.70
2009,04,18,01,17,5.60
2009,04,18,01,18,5.60
2009,04,18,01,19,5.60
2009,04,18,01,20,5.60
2009,04,18,01,21,5.60
2009,04,18,01,22,5.50
2009,04,18,01,23,5.50
2009,04,18,01,24,5.50
2009,04,18,01,25,5.40
2009,04,18,01,26,5.40
2009,04,18,01,27,5.40
2009,04,18,01,28,5.40
2009,04,18,01,29,5.40
2009,04,18,01,30,5.40
2009,04,18,01,31,5.30
2009,04,18,01,32,5.30
2009,04,18,01,33,5.30
2009,04,18,01,34,5.20
2009,04,18,01,35,5.20
2009,04,18,01,36,5.20
2009,04,18,01,37,5.20
2009,04,18,01,38,5.20
2009,04,18,01,39,5.20
2009,04,18,01,40,5.20
2009,04,18,01,41,5.20
2009,04,18,01,42,5.20
2009,04,18,01,43,5.30
2009,04,18,01,44,5.30
2009,04,18,01,45,5.30
2009,04,18,01,46,5.30
2009,04,18,01,47,5.40
2009,04,18,01,48,5.50
2009,04,18,01,49,5.50
2009,04,18,01,50,5.60
2009,04,18,01,51,5.60
2009,04,18,01,52,5.60
2009,04,18,01,53,5.60
2009,04,18,01,54,5.60
2009,04,18,01,55,5.60
2009,04,18,01,56,5.70
2009,04,18,01,57,5.70
2009,04,18,01,58,5.70
2009,04,18,01,59,5.80
2009,04,18,02,00,5.80
2009,04,18,02,01,5.80
2009,04,18,02,02,5.80
2009,04,18,02,03,5.90
2009,04,18,02,04,5.90
2009,04,18,02,05,6.00
2009,04,18,02,06,6.00
2009,04,18,02,07,6.00
2009,04,18,02,08,6.10
2009,04,18,02,09,6.10
2009,04,18,02,10,6.10
2009,04,18,02,11,6.10
2009,04,18,02,12,6.10
2009,04,18,02,13,6.10
2009,04,18,02,14,6.10
2009,04,18,02,15,6.10
2009,04,18,02,16,6.10
2009,04,18,02,17,6.10
2009,04,18,02,18,6.10
2009,04,18,02,19,6.10
2009,04,18,02,20,6.10
2009,04,18,02,21,6.10
2009,04,18,02,22,6.10
2009,04,18,02,23,6.10
2009,04,18,02,24,6.00
2009,04,18,02,25,5.90
2009,04,18,02,26,5.90
2009,04,18,02,27,5.90
2009,04,18,02,28,5.80
2009,04,18,02,29,5.80
2009,04,18,02,30,5.80
2009,04,18,02,31,5.80
2009,04,18,02,32,5.80
2009,04,18,02,33,5.70
2009,04,18,02,34,5.70
2009,04,18,02,35,5.70
2009,04,18,02,36,5.70
2009,04,18,02,37,5.60
2009,04,18,02,38,5.60
2009,04,18,02,39,5.50
2009,04,18,02,40,5.50
2009,04,18,02,41,5.40
2009,04,18,02,42,5.40
2009,04,18,02,43,5.30
2009,04,18,02,44,5.30
2009,04,18,02,45,5.30
2009,04,18,02,46,5.20
2009,04,18,02,47,5.20
2009,04,18,02,48,5.20
2009,04,18,02,49,5.10
2009,04,18,02,50,5.10
2009,04,18,02,51,5.10
2009,04,18,02,52,5.10
2009,04,18,02,53,5.10
2009,04,18,02,54,5.10
2009,04,18,02,55,5.10
2009,04,18,02,56,5.10
2009,04,18,02,57,5.10
2009,04,18,02,58,5.10
2009,04,18,02,59,5.00
2009,04,18,03,00,5.00
2009,04,18,03,01,5.00
2009,04,18,03,02,5.00
2009,04,18,03,03,4.90
2009,04,18,03,04,4.90
2009,04,18,03,05,4.80
2009,04,18,03,06,4.70
2009,04,18,03,07,4.70
2009,04,18,03,08,4.70
2009,04,18,03,09,4.70
2009,04,18,03,10,4.70
2009,04,18,03,11,4.70
2009,04,18,03,12,4.70
2009,04,18,03,13,4.70
2009,04,18,03,14,4.70
2009,04,18,03,15,4.70
2009,04,18,03,16,4.70
2009,04,18,03,17,4.70
2009,04,18,03,18,4.70
2009,04,18,03,19,4.70
2009,04,18,03,20,4.70
2009,04,18,03,21,4.70
2009,04,18,03,22,4.60
2009,04,18,03,23,4.60
2009,04,18,03,24,4.60
2009,04,18,03,25,4.60
2009,04,18,03,26,4.60
2009,04,18,03,27,4.60
2009,04,18,03,28,4.60
2009,04,18,03,29,4.60
2009,04,18,03,30,4.60
2009,04,18,04,02,4.20
2009,04,18,04,03,4.20
2009,04,18,04,04,4.20
2009,04,18,04,05,4.10
2009,04,18,04,06,4.10
2009,04,18,04,07,4.10
2009,04,18,04,08,4.10
2009,04,18,04,09,4.00
2009,04,18,04,10,4.00
2009,04,18,04,11,4.00
2009,04,18,04,12,4.00
2009,04,18,04,13,3.90
2009,04,18,04,14,3.90
2009,04,18,04,15,3.90
2009,04,18,04,16,3.90
2009,04,18,04,17,3.90
2009,04,18,04,18,3.90
2009,04,18,04,19,3.90
2009,04,18,04,20,3.90
2009,04,18,04,21,3.80
2009,04,18,04,22,3.80
2009,04,18,04,23,3.80
2009,04,18,04,24,3.80
2009,04,18,04,25,3.80
2009,04,18,04,26,3.80
2009,04,18,04,27,3.80
2009,04,18,04,28,3.80
2009,04,18,04,29,3.70
2009,04,18,04,30,3.70
2009,04,18,04,31,3.70
2009,04,18,04,32,3.70
2009,04,18,04,33,3.60
2009,04,18,04,34,3.60
2009,04,18,04,35,3.60
2009,04,18,04,36,3.60
2009,04,18,04,37,3.60
2009,04,18,04,38,3.60
2009,04,18,04,39,3.60
2009,04,18,04,40,3.60
2009,04,18,04,41,3.60
2009,04,18,04,42,3.50
2009,04,18,04,43,3.60
2009,04,18,04,44,3.50
2009,04,18,04,45,3.50
2009,04,18,04,46,3.50
2009,04,18,04,47,3.50
2009,04,18,04,48,3.50
2009,04,18,04,49,3.50
2009,04,18,04,50,3.50
2009,04,18,04,51,3.50
2009,04,18,04,52,3.50
2009,04,18,04,53,3.50
2009,04,18,04,54,3.50
2009,04,18,04,55,3.50
2009,04,18,04,56,3.50
2009,04,18,04,57,3.40
2009,04,18,04,58,3.40
2009,04,18,04,59,3.50
2009,04,18,05,00,3.50
2009,04,18,05,01,3.50
2009,04,18,05,02,3.60
2009,04,18,05,03,3.60
2009,04,18,05,04,3.60
2009,04,18,05,05,3.60
2009,04,18,05,06,3.60
2009,04,18,05,07,3.60
2009,04,18,05,08,3.70
2009,04,18,05,09,3.70
2009,04,18,05,10,3.70
2009,04,18,05,11,3.70
2009,04,18,05,12,3.70
2009,04,18,05,13,3.70
2009,04,18,05,14,3.70
2009,04,18,05,15,3.70
2009,04,18,05,16,3.70
2009,04,18,05,17,3.70
2009,04,18,05,18,3.70
2009,04,18,05,19,3.70
2009,04,18,05,20,3.70
2009,04,18,05,21,3.70
2009,04,18,05,22,3.70
2009,04,18,05,23,3.70
2009,04,18,05,24,3.70
2009,04,18,05,25,3.70
2009,04,18,05,26,3.70
2009,04,18,05,27,3.70
2009,04,18,05,28,3.60
2009,04,18,05,29,3.60
2009,04,18,05,30,3.60
2009,04,18,05,31,3.60
2009,04,18,05,32,3.60
2009,04,18,05,33,3.60
2009,04,18,05,34,3.60
2009,04,18,05,35,3.60
2009,04,18,05,36,3.60
2009,04,18,05,37,3.50
2009,04,18,05,38,3.50
2009,04,18,05,39,3.50
2009,04,18,05,40,3.50
2009,04,18,05,41,3.50
2009,04,18,05,42,3.50
2009,04,18,05,43,3.50
2009,04,18,05,44,3.50
2009,04,18,05,45,3.50
2009,04,18,05,46,3.50
2009,04,18,05,47,3.50
2009,04,18,05,48,3.50
2009,04,18,05,49,3.60
2009,04,18,05,50,3.60
2009,04,18,05,51,3.60
2009,04,18,05,52,3.60
2009,04,18,05,53,3.70
2009,04,18,05,54,3.70
2009,04,18,05,55,3.70
2009,04,18,05,56,3.70
2009,04,18,05,57,3.70
2009,04,18,05,58,3.70
2009,04,18,05,59,3.60
2009,04,18,06,00,3.60
2009,04,18,06,01,3.60
2009,04,18,06,02,3.60
2009,04,18,06,03,3.60
2009,04,18,06,04,3.60
2009,04,18,06,05,3.60
2009,04,18,06,06,3.60
2009,04,18,06,07,3.60
2009,04,18,06,08,3.60
2009,04,18,06,09,3.60
2009,04,18,06,10,3.50
2009,04,18,06,11,3.50
2009,04,18,06,12,3.50
2009,04,18,06,13,3.50
2009,04,18,06,14,3.50
2009,04,18,06,15,3.50
2009,04,18,06,16,3.40
2009,04,18,06,17,3.40
2009,04,18,06,18,3.40
2009,04,18,06,19,3.40
2009,04,18,06,20,3.40
2009,04,18,06,21,3.40
2009,04,18,06,22,3.30
2009,04,18,06,23,3.30
2009,04,18,06,24,3.30
2009,04,18,06,25,3.30
2009,04,18,06,26,3.30
2009,04,18,06,27,3.30
2009,04,18,06,28,3.30
2009,04,18,06,29,3.30
2009,04,18,06,30,3.30
2009,04,18,06,31,3.30
2009,04,18,06,32,3.30
2009,04,18,06,33,3.20
2009,04,18,06,34,3.20
2009,04,18,06,35,3.20
2009,04,18,06,36,3.20
2009,04,18,06,37,3.20
2009,04,18,06,38,3.20
2009,04,18,06,39,3.20
2009,04,18,06,40,3.20
2009,04,18,06,41,3.20
2009,04,18,06,42,3.20
2009,04,18,06,43,3.20
2009,04,18,06,44,3.20
2009,04,18,06,45,3.10
2009,04,18,06,46,3.10
2009,04,18,06,47,3.20
2009,04,18,06,48,3.10
2009,04,18,06,49,3.20
2009,04,18,06,50,3.20
2009,04,18,06,51,3.10
2009,04,18,06,52,3.20
2009,04,18,06,53,3.20
2009,04,18,06,54,3.20
2009,04,18,06,55,3.20
2009,04,18,06,56,3.20
2009,04,18,06,57,3.20
2009,04,18,06,58,3.20
2009,04,18,06,59,3.20
2009,04,18,07,00,3.20
2009,04,18,07,01,3.20
2009,04,18,07,02,3.30
2009,04,18,07,03,3.30
2009,04,18,07,04,3.30
2009,04,18,07,05,3.30
2009,04,18,07,06,3.30
2009,04,18,07,07,3.30
2009,04,18,07,08,3.40
2009,04,18,07,09,3.40
2009,04,18,07,10,3.40
2009,04,18,07,11,3.40
2009,04,18,07,12,3.40
2009,04,18,07,13,3.50
2009,04,18,07,14,3.50
2009,04,18,07,15,3.50
2009,04,18,07,16,3.50
2009,04,18,07,17,3.60
2009,04,18,07,18,3.60
2009,04,18,07,19,3.60
2009,04,18,07,20,3.60
2009,04,18,07,21,3.70
2009,04,18,07,22,3.70
2009,04,18,07,23,3.70
2009,04,18,07,24,3.70
2009,04,18,07,25,3.80
2009,04,18,07,26,3.80
2009,04,18,07,27,3.80
2009,04,18,07,28,3.80
2009,04,18,07,29,3.80
2009,04,18,07,30,3.90
2009,04,18,07,31,3.90
2009,04,18,07,32,3.90
2009,04,18,07,33,3.90
2009,04,18,07,34,4.00
2009,04,18,07,35,4.00
2009,04,18,07,36,4.00
2009,04,18,07,37,4.10
2009,04,18,07,38,4.10
2009,04,18,07,39,4.10
2009,04,18,07,40,4.10
2009,04,18,07,41,4.20
2009,04,18,07,42,4.20
2009,04,18,07,43,4.20
2009,04,18,07,44,4.30
2009,04,18,07,45,4.30
2009,04,18,07,46,4.30
2009,04,18,07,47,4.30
2009,04,18,07,48,4.40
2009,04,18,07,49,4.40
2009,04,18,07,50,4.40
2009,04,18,07,51,4.50
2009,04,18,07,52,4.50
2009,04,18,07,53,4.50
2009,04,18,07,54,4.60
2009,04,18,07,55,4.60
2009,04,18,07,56,4.60
2009,04,18,07,57,4.70
2009,04,18,07,58,4.70
2009,04,18,07,59,4.70
2009,04,18,08,00,4.80
2009,04,18,08,01,4.80
2009,04,18,08,02,4.80
2009,04,18,08,03,4.90
2009,04,18,08,04,4.90
2009,04,18,08,05,5.00
2009,04,18,08,06,5.00
2009,04,18,08,07,5.10
2009,04,18,08,08,5.10
2009,04,18,08,09,5.10
2009,04,18,08,10,5.10
2009,04,18,08,11,5.20
2009,04,18,08,12,5.20
2009,04,18,08,13,5.30
2009,04,18,08,14,5.30
2009,04,18,08,15,5.30
2009,04,18,08,16,5.30
2009,04,18,08,17,5.40
2009,04,18,08,18,5.40
2009,04,18,08,19,5.40
2009,04,18,08,20,5.40
2009,04,18,08,21,5.40
2009,04,18,08,22,5.50
2009,04,18,08,23,5.50
2009,04,18,08,24,5.50
2009,04,18,08,25,5.60
2009,04,18,08,26,5.60
2009,04,18,08,27,5.60
2009,04,18,08,28,5.60
2009,04,18,08,29,5.70
2009,04,18,08,30,5.70
2009,04,18,08,31,5.70
2009,04,18,08,32,5.70
2009,04,18,08,33,5.80
2009,04,18,08,34,5.80
2009,04,18,08,35,5.80
2009,04,18,08,36,5.90
2009,04,18,08,37,5.90
2009,04,18,08,38,5.90
2009,04,18,08,39,6.00
2009,04,18,08,40,6.00
2009,04,18,08,41,6.10
2009,04,18,08,42,6.10
2009,04,18,08,43,6.10
2009,04,18,08,44,6.20
2009,04,18,08,45,6.30
2009,04,18,08,46,6.40
2009,04,18,08,47,6.50
2009,04,18,08,48,6.60
2009,04,18,08,49,6.70
2009,04,18,08,50,6.70
2009,04,18,08,51,6.80
2009,04,18,08,52,6.80
2009,04,18,08,53,6.80
2009,04,18,08,54,6.80
2009,04,18,08,55,6.80
2009,04,18,08,56,6.90
2009,04,18,08,57,6.90
2009,04,18,08,58,6.90
2009,04,18,08,59,6.90
2009,04,18,09,00,7.00
2009,04,18,09,01,7.10
2009,04,18,09,02,7.10
2009,04,18,09,03,7.20
2009,04,18,09,04,7.20
2009,04,18,09,05,7.30
2009,04,18,09,06,7.40
2009,04,18,09,07,7.40
2009,04,18,09,08,7.50
2009,04,18,09,09,7.60
2009,04,18,09,10,7.60
2009,04,18,09,11,7.60
2009,04,18,09,12,7.70
2009,04,18,09,13,7.70
2009,04,18,09,14,7.80
2009,04,18,09,15,7.90
2009,04,18,09,16,8.00
2009,04,18,09,17,8.10
2009,04,18,09,18,8.10
2009,04,18,09,19,8.10
2009,04,18,09,20,8.20
2009,04,18,09,21,8.20
2009,04,18,09,22,8.20
2009,04,18,09,23,8.20
2009,04,18,09,24,8.10
2009,04,18,09,25,8.10
2009,04,18,09,26,8.10
2009,04,18,09,27,8.10
2009,04,18,09,28,8.10
2009,04,18,09,29,8.00
2009,04,18,09,30,7.90
2009,04,18,09,31,7.90
2009,04,18,09,32,7.80
2009,04,18,09,33,7.80
2009,04,18,09,34,7.80
2009,04,18,09,35,7.80
2009,04,18,09,36,7.80
2009,04,18,09,37,7.80
2009,04,18,09,38,7.80
2009,04,18,09,39,7.80
2009,04,18,09,40,7.80
2009,04,18,09,41,7.90
2009,04,18,09,42,7.90
2009,04,18,09,43,7.90
2009,04,18,09,44,7.90
2009,04,18,09,45,7.90
2009,04,18,09,46,7.90
2009,04,18,09,47,7.90
2009,04,18,09,48,8.00
2009,04,18,09,49,8.10
2009,04,18,09,50,8.20
2009,04,18,09,51,8.30
2009,04,18,09,52,8.30
2009,04,18,09,53,8.40
2009,04,18,09,54,8.50
2009,04,18,09,55,8.50
2009,04,18,09,56,8.40
2009,04,18,09,57,8.40
2009,04,18,09,58,8.30
2009,04,18,09,59,8.30
2009,04,18,10,00,8.30
2009,04,18,10,01,8.30
2009,04,18,10,02,8.30
2009,04,18,10,03,8.30
2009,04,18,10,04,8.40
2009,04,18,10,05,8.40
2009,04,18,10,06,8.40
2009,04,18,10,07,8.40
2009,04,18,10,08,8.30
2009,04,18,10,09,8.30
2009,04,18,10,10,8.30
2009,04,18,10,11,8.30
2009,04,18,10,12,8.30
2009,04,18,10,13,8.30
2009,04,18,10,14,8.30
2009,04,18,10,15,8.30
2009,04,18,10,16,8.30
2009,04,18,10,17,8.30
2009,04,18,10,18,8.30
2009,04,18,10,19,8.20
2009,04,18,10,20,8.20
2009,04,18,10,21,8.20
2009,04,18,10,22,8.20
2009,04,18,10,23,8.20
2009,04,18,10,24,8.20
2009,04,18,10,25,8.20
2009,04,18,10,26,8.20
2009,04,18,10,27,8.20
2009,04,18,10,28,8.20
2009,04,18,10,29,8.20
2009,04,18,10,30,8.10
2009,04,18,10,31,8.10
2009,04,18,10,32,8.10
2009,04,18,10,33,8.20
2009,04,18,10,34,8.20
2009,04,18,10,35,8.30
2009,04,18,10,36,8.30
2009,04,18,10,37,8.30
2009,04,18,10,38,8.40
2009,04,18,10,39,8.40
2009,04,18,10,40,8.40
2009,04,18,10,41,8.30
2009,04,18,10,42,8.30
2009,04,18,10,43,8.30
2009,04,18,10,44,8.30
2009,04,18,10,45,8.30
2009,04,18,10,46,8.30
2009,04,18,10,47,8.30
2009,04,18,10,48,8.20
2009,04,18,10,49,8.20
2009,04,18,10,50,8.20
2009,04,18,10,51,8.30
2009,04,18,10,52,8.30
2009,04,18,10,53,8.30
2009,04,18,10,54,8.30
2009,04,18,10,55,8.30
2009,04,18,10,56,8.30
2009,04,18,10,57,8.30
2009,04,18,10,58,8.40
2009,04,18,10,59,8.50
2009,04,18,11,00,8.50
2009,04,18,11,01,8.60
2009,04,18,11,02,8.60
2009,04,18,11,03,8.70
2009,04,18,11,04,8.70
2009,04,18,11,05,8.70
2009,04,18,11,06,8.70
2009,04,18,11,07,8.80
2009,04,18,11,08,8.80
2009,04,18,11,09,8.90
2009,04,18,11,10,8.90
2009,04,18,11,11,8.90
2009,04,18,11,12,8.90
2009,04,18,11,13,8.80
2009,04,18,11,14,8.80
2009,04,18,11,15,8.80
2009,04,18,11,16,8.70
2009,04,18,11,17,8.70
2009,04,18,11,18,8.60
2009,04,18,11,19,8.60
2009,04,18,11,20,8.60
2009,04,18,11,21,8.60
2009,04,18,11,22,8.60
2009,04,18,11,23,8.70
2009,04,18,11,24,8.70
2009,04,18,11,25,8.80
2009,04,18,11,26,8.80
2009,04,18,11,27,8.80
2009,04,18,11,28,8.80
2009,04,18,11,29,8.70
2009,04,18,11,30,8.60
2009,04,18,11,31,8.60
2009,04,18,11,32,8.60
2009,04,18,11,33,8.60
2009,04,18,11,34,8.60
2009,04,18,11,35,8.60
2009,04,18,11,36,8.60
2009,04,18,11,37,8.70
2009,04,18,11,38,8.70
2009,04,18,11,39,8.80
2009,04,18,11,40,8.90
2009,04,18,11,41,8.90
2009,04,18,11,42,8.80
2009,04,18,11,43,8.80
2009,04,18,11,44,8.80
2009,04,18,11,45,8.80
2009,04,18,11,46,8.80
2009,04,18,11,47,8.70
2009,04,18,11,48,8.80
2009,04,18,11,49,8.80
2009,04,18,11,50,8.80
2009,04,18,11,51,8.80
2009,04,18,11,52,8.80
2009,04,18,11,53,8.90
2009,04,18,11,54,8.90
2009,04,18,11,55,8.80
2009,04,18,11,56,8.80
2009,04,18,11,57,8.80
2009,04,18,11,58,8.70
2009,04,18,11,59,8.80
2009,04,18,12,00,8.80
2009,04,18,12,01,8.80
2009,04,18,12,02,8.90
2009,04,18,12,03,8.90
2009,04,18,12,04,8.90
2009,04,18,12,05,9.00
2009,04,18,12,06,8.90
2009,04,18,12,07,8.90
2009,04,18,12,08,8.80
2009,04,18,12,09,8.80
2009,04,18,12,10,8.80
2009,04,18,12,11,8.80
2009,04,18,12,12,8.90
2009,04,18,12,13,8.90
2009,04,18,12,14,8.90
2009,04,18,12,15,8.80
2009,04,18,12,16,8.80
2009,04,18,12,17,8.90
2009,04,18,12,18,8.90
2009,04,18,12,19,9.00
2009,04,18,12,20,9.00
2009,04,18,12,21,9.10
2009,04,18,12,22,9.10
2009,04,18,12,23,9.10
2009,04,18,12,24,9.00
2009,04,18,12,25,8.90
2009,04,18,12,26,9.00
2009,04,18,12,27,8.90
2009,04,18,12,28,9.00
2009,04,18,12,29,9.00
2009,04,18,12,30,9.10
2009,04,18,12,31,9.10
2009,04,18,12,32,9.10
2009,04,18,12,33,9.10
2009,04,18,12,34,9.10
2009,04,18,12,35,9.10
2009,04,18,12,36,9.10
2009,04,18,12,37,9.10
2009,04,18,12,38,9.10
2009,04,18,12,39,9.10
2009,04,18,12,40,9.10
2009,04,18,12,41,9.10
2009,04,18,12,42,9.10
2009,04,18,12,43,9.20
2009,04,18,12,44,9.20
2009,04,18,12,45,9.30
2009,04,18,12,46,9.30
2009,04,18,12,47,9.40
2009,04,18,12,48,9.40
2009,04,18,12,49,9.40
2009,04,18,12,50,9.40
2009,04,18,12,51,9.40
2009,04,18,12,52,9.40
2009,04,18,12,53,9.40
2009,04,18,12,54,9.40
2009,04,18,12,55,9.50
2009,04,18,12,56,9.50
2009,04,18,12,57,9.60
2009,04,18,12,58,9.60
2009,04,18,12,59,9.50
2009,04,18,13,00,9.50
2009,04,18,13,01,9.50
2009,04,18,13,02,9.40
2009,04,18,13,03,9.40
2009,04,18,13,04,9.50
2009,04,18,13,05,9.50
2009,04,18,13,06,9.50
2009,04,18,13,07,9.60
2009,04,18,13,08,9.50
2009,04,18,13,09,9.50
2009,04,18,13,10,9.40
2009,04,18,13,11,9.40
2009,04,18,13,12,9.40
2009,04,18,13,13,9.40
2009,04,18,13,14,9.40
2009,04,18,13,15,9.30
2009,04,18,13,16,9.30
2009,04,18,13,17,9.30
2009,04,18,13,18,9.40
2009,04,18,13,19,9.60
2009,04,18,13,20,9.70
2009,04,18,13,21,9.70
2009,04,18,13,22,9.60
2009,04,18,13,23,9.60
2009,04,18,13,24,9.60
2009,04,18,13,25,9.60
2009,04,18,13,26,9.60
2009,04,18,13,27,9.70
2009,04,18,13,28,9.70
2009,04,18,13,29,9.70
2009,04,18,13,30,9.80
2009,04,18,13,31,9.80
2009,04,18,13,32,9.70
2009,04,18,13,33,9.70
2009,04,18,13,34,9.70
2009,04,18,13,35,9.70
2009,04,18,13,36,9.80
2009,04,18,13,37,9.80
2009,04,18,13,38,9.80
2009,04,18,13,39,9.70
2009,04,18,13,40,9.70
2009,04,18,13,41,9.80
2009,04,18,13,42,9.80
2009,04,18,13,43,9.90
2009,04,18,13,44,9.90
2009,04,18,13,45,9.90
2009,04,18,13,46,9.90
2009,04,18,13,47,9.90
2009,04,18,13,48,9.90
2009,04,18,13,49,9.90
2009,04,18,13,50,9.90
2009,04,18,13,51,10.00
2009,04,18,13,52,10.00
2009,04,18,13,53,10.00
2009,04,18,13,54,10.00
2009,04,18,13,55,10.00
2009,04,18,13,56,10.00
2009,04,18,13,57,10.00
2009,04,18,13,58,10.00
2009,04,18,13,59,10.10
2009,04,18,14,00,10.10
2009,04,18,14,01,10.10
2009,04,18,14,02,10.20
2009,04,18,14,03,10.20
2009,04,18,14,04,10.10
2009,04,18,14,05,10.10
2009,04,18,14,06,10.00
2009,04,18,14,07,9.90
2009,04,18,14,08,9.80
2009,04,18,14,09,9.70
2009,04,18,14,10,9.70
2009,04,18,14,11,9.60
2009,04,18,14,12,9.60
2009,04,18,14,13,9.50
2009,04,18,14,14,9.60
2009,04,18,14,15,9.60
2009,04,18,14,16,9.70
2009,04,18,14,17,9.80
2009,04,18,14,18,9.80
2009,04,18,14,19,9.80
2009,04,18,14,20,9.90
2009,04,18,14,21,9.90
2009,04,18,14,22,9.90
2009,04,18,14,23,10.00
2009,04,18,14,24,9.90
2009,04,18,14,25,9.90
2009,04,18,14,26,9.90
2009,04,18,14,27,9.90
2009,04,18,14,28,9.90
2009,04,18,14,29,9.90
2009,04,18,14,30,9.90
2009,04,18,14,31,9.90
2009,04,18,14,32,9.80
2009,04,18,14,33,9.90
2009,04,18,14,34,9.90
2009,04,18,14,35,9.90
2009,04,18,14,36,10.00
2009,04,18,14,37,10.00
2009,04,18,14,38,10.00
2009,04,18,14,39,10.10
2009,04,18,14,40,10.10
2009,04,18,14,41,10.10
2009,04,18,14,42,10.00
2009,04,18,14,43,10.00
2009,04,18,14,44,10.00
2009,04,18,14,45,9.90
2009,04,18,14,46,9.90
2009,04,18,14,47,9.90
2009,04,18,14,48,9.90
2009,04,18,14,49,10.00
2009,04,18,14,50,10.10
2009,04,18,14,51,10.10
2009,04,18,14,52,10.30
2009,04,18,14,53,10.30
2009,04,18,14,54,10.30
2009,04,18,14,55,10.30
2009,04,18,14,56,10.30
2009,04,18,14,57,10.30
2009,04,18,14,58,10.30
2009,04,18,14,59,10.30
2009,04,18,15,00,10.30
2009,04,18,15,01,10.30
2009,04,18,15,02,10.30
2009,04,18,15,03,10.30
2009,04,18,15,04,10.30
2009,04,18,15,05,10.20
2009,04,18,15,06,10.20
2009,04,18,15,07,10.20
2009,04,18,15,08,10.10
2009,04,18,15,09,10.10
2009,04,18,15,10,10.00
2009,04,18,15,11,10.00
2009,04,18,15,12,9.90
2009,04,18,15,13,9.90
2009,04,18,15,14,9.90
2009,04,18,15,15,9.90
2009,04,18,15,16,10.10
2009,04,18,15,17,10.10
2009,04,18,15,18,10.10
2009,04,18,15,19,10.20
2009,04,18,15,20,10.20
2009,04,18,15,21,10.20
2009,04,18,15,22,10.20
2009,04,18,15,23,10.20
2009,04,18,15,24,10.20
2009,04,18,15,25,10.20
2009,04,18,15,26,10.30
2009,04,18,15,27,10.30
2009,04,18,15,28,10.40
2009,04,18,15,29,10.40
2009,04,18,15,30,10.50
2009,04,18,15,31,10.50
2009,04,18,15,32,10.50
2009,04,18,15,33,10.50
2009,04,18,15,34,10.60
2009,04,18,15,35,10.60
2009,04,18,15,36,10.60
2009,04,18,15,37,10.60
2009,04,18,15,38,10.60
2009,04,18,15,39,10.60
2009,04,18,15,40,10.60
2009,04,18,15,41,10.60
2009,04,18,15,42,10.70
2009,04,18,15,43,10.70
2009,04,18,15,44,10.70
2009,04,18,15,45,10.80
2009,04,18,15,46,10.80
2009,04,18,15,47,10.80
2009,04,18,15,48,10.90
2009,04,18,15,49,10.90
2009,04,18,15,50,10.90
2009,04,18,15,51,10.90
2009,04,18,15,52,10.80
2009,04,18,15,53,10.80
2009,04,18,15,54,10.70
2009,04,18,15,55,10.70
2009,04,18,15,56,10.60
2009,04,18,15,57,10.60
2009,04,18,15,58,10.70
2009,04,18,15,59,10.70
2009,04,18,16,00,10.80
2009,04,18,16,01,10.70
2009,04,18,16,02,10.80
2009,04,18,16,03,10.80
2009,04,18,16,04,10.80
2009,04,18,16,05,10.70
2009,04,18,16,06,10.80
2009,04,18,16,07,10.80
2009,04,18,16,08,10.80
2009,04,18,16,09,10.80
2009,04,18,16,10,10.80
2009,04,18,16,11,10.80
2009,04,18,16,12,10.90
2009,04,18,16,13,10.90
2009,04,18,16,14,11.00
2009,04,18,16,15,10.90
2009,04,18,16,16,10.90
2009,04,18,16,17,10.80
2009,04,18,16,18,10.80
2009,04,18,16,19,10.80
2009,04,18,16,20,10.80
2009,04,18,16,21,10.80
2009,04,18,16,22,10.80
2009,04,18,16,23,10.80
2009,04,18,16,24,10.90
2009,04,18,16,25,10.90
2009,04,18,16,26,11.00
2009,04,18,16,27,11.10
2009,04,18,16,28,11.20
2009,04,18,16,29,11.20
2009,04,18,16,30,11.30
2009,04,18,16,31,11.30
2009,04,18,16,32,11.20
2009,04,18,16,33,11.20
2009,04,18,16,34,11.20
2009,04,18,16,35,11.10
2009,04,18,16,36,11.10
2009,04,18,16,37,11.00
2009,04,18,16,38,11.00
2009,04,18,16,39,10.90
2009,04,18,16,40,10.80
2009,04,18,16,41,10.90
2009,04,18,16,42,10.90
2009,04,18,16,43,10.80
2009,04,18,16,44,10.80
2009,04,18,16,45,10.80
2009,04,18,16,46,10.90
2009,04,18,16,47,10.90
2009,04,18,16,48,10.90
2009,04,18,16,49,10.90
2009,04,18,16,50,10.90
2009,04,18,16,51,10.90
2009,04,18,16,52,10.90
2009,04,18,16,53,10.90
2009,04,18,16,54,10.90
2009,04,18,16,55,10.90
2009,04,18,16,56,10.90
2009,04,18,16,57,10.90
2009,04,18,16,58,10.90
2009,04,18,16,59,11.00
2009,04,18,17,00,11.00
2009,04,18,17,01,11.10
2009,04,18,17,02,11.00
2009,04,18,17,03,11.00
2009,04,18,17,04,11.00
2009,04,18,17,05,11.00
2009,04,18,17,06,10.90
2009,04,18,17,07,10.90
2009,04,18,17,08,10.90
2009,04,18,17,09,10.90
2009,04,18,17,10,10.90
2009,04,18,17,11,10.90
2009,04,18,17,12,10.90
2009,04,18,17,13,11.00
2009,04,18,17,14,11.00
2009,04,18,17,15,11.00
2009,04,18,17,16,11.10
2009,04,18,17,17,11.10
2009,04,18,17,18,11.10
2009,04,18,17,19,11.20
2009,04,18,17,20,11.20
2009,04,18,17,21,11.30
2009,04,18,17,22,11.30
2009,04,18,17,23,11.20
2009,04,18,17,24,11.20
2009,04,18,17,25,11.20
2009,04,18,17,26,11.30
2009,04,18,17,27,11.30
2009,04,18,17,28,11.30
2009,04,18,17,29,11.30
2009,04,18,17,30,11.30
2009,04,18,17,31,11.30
2009,04,18,17,32,11.40
2009,04,18,17,33,11.40
2009,04,18,17,34,11.40
2009,04,18,17,35,11.50
2009,04,18,17,36,11.50
2009,04,18,17,37,11.50
2009,04,18,17,38,11.50
2009,04,18,17,39,11.50
2009,04,18,17,40,11.40
2009,04,18,17,41,11.40
2009,04,18,17,42,11.40
2009,04,18,17,43,11.40
2009,04,18,17,44,11.40
2009,04,18,17,45,11.40
2009,04,18,17,46,11.50
2009,04,18,17,47,11.50
2009,04,18,17,48,11.40
2009,04,18,17,49,11.40
2009,04,18,17,50,11.30
2009,04,18,17,51,11.30
2009,04,18,17,52,11.20
2009,04,18,17,53,11.10
2009,04,18,17,54,11.10
2009,04,18,17,55,11.10
2009,04,18,17,56,11.10
2009,04,18,17,57,11.10
2009,04,18,17,58,11.10
2009,04,18,17,59,11.10
2009,04,18,18,00,11.10
2009,04,18,18,01,11.10
2009,04,18,18,02,11.10
2009,04,18,18,03,11.20
2009,04,18,18,04,11.20
2009,04,18,18,05,11.20
2009,04,18,18,06,11.20
2009,04,18,18,07,11.10
2009,04,18,18,08,11.10
2009,04,18,18,09,11.10
2009,04,18,18,10,11.10
2009,04,18,18,11,11.10
2009,04,18,18,12,11.10
2009,04,18,18,13,11.10
2009,04,18,18,14,11.10
2009,04,18,18,15,11.10
2009,04,18,18,16,11.10
2009,04,18,18,17,11.10
2009,04,18,18,18,11.10
2009,04,18,18,19,11.10
2009,04,18,18,20,11.00
2009,04,18,18,21,11.00
2009,04,18,18,22,11.00
2009,04,18,18,23,11.00
2009,04,18,18,24,11.00
2009,04,18,18,25,11.00
2009,04,18,18,26,11.10